STARLINK-31242, 58864

Orbit data source: Space-Track

STARLINK-31242, 58864 is a payload satellite owned by SpaceX/Seattle (US) in LEO that was launched on Mon, 29 Jan 2024 UTC via an FALCON 9 launch vehicle from the Air Force Eastern Test Range (AFETR). Payload-class satellites include a variety of spacecraft equipped with specific instruments for various scientific and technological missions. These include communications satellites like Starlink; space stations such as the ISS; scientific satellites like the Hubble; Earth observation satellites from companies like Planet Labs, Umbra, and HawkEye 360; GPS; miniature CubeSats for education and research; and military/defense satellites.

Loading next visibility...
Identifier
58864, 2024-019M
Orbit
LEO
Country
Flag of USUS
Related business
Manufacturer
SpaceX/Seattle
Mission
Operational Commercial Communications
Bus & Motor
STARLINK V2M, Unknown motor
Mass
730 kg wet, ~700 kg dry
Launch date (UTC)
2024-01-29 (2 years ago)
Launch vehicle
FALCON 9
Launch site
Air Force Eastern Test Range (AFETR)
Object type
Payload
Rocket body
Debris
Shape & HBR
Box + 2 Pan, 17.7 m
Radar Cross Section
33.884 m², Large (>1 m²)

Expand to show TLE details & history
Last TLE update: 2 days ago

TLE from 2 days ago
0 STARLINK-31242
1 58864U 24019M   26171.28913052 -.00001233  00000-0 -35303-4 0  9993
2 58864  43.0018  29.4968 0001704 271.0421  89.0235 15.27576222134774
Epoch: 2026-06-20T06:56Z
TLE epoch observation values (Epoch: 2026-06-20T06:56:20.876Z)
Latitude
-0.00007°
Longitude
16.90385°
Altitude
482.816 km
Speed
7.626 km/s
True Right ascension
01h 57m 59s
True Declination
0° 00' 00"
Sunlit
Object was in daylight at epoch
Visualization orbit readout
Latitude
Unknown
Longitude
Unknown
Altitude
Unknown
Speed
Unknown
Apparent Right ascension
Unknown
Apparent Declination
Unknown
Sunlit
N/A
Visualization observer readout
Local Sidereal Time
21:25:27
Azimuth
Unknown
Elevation
Unknown
Doppler factor
Unknown
Orbital elements
Apogee altitude
486.175 km
Perigee altitude
483.836 km
Semi-major axis
6,863.142 km
Eccentricity
0.00017
Inclination
43.0018°
RAAN
29.4968°
Arg. of periapsis
271.0421°
True anomaly
89.04302°
Mean anomaly
89.0235°
Eccentric anomaly
89.03326°
Mean motion
3.81732 °/min
Orbital period
94.31 mins
BSTAR
-0.000035303
Loading maneuver chart data...
Computing Atmospheric mass density...
Loading historical data...
Loading historical data...
Loading historical data...
Loading historical data...
Loading historical data...
Loading historical data...
Loading historical data...

Documentation

Showing up to 5 results
|